星链-4137 (STARLINK-4137 )

导读 | 星芒AI

STARLINK-4137 是 SpaceX Starlink 卫星互联网项目中的一颗低轨卫星。它属于 Starlink 群体部署的数千颗卫星之一,旨在为全球用户提供高速互联网接入服务。该卫星运行在约 550 公里的近地轨道上,采用先进的通信技术,支持宽带数据传输。Starlink 项目致力于改善偏远地区的网络覆盖,提升全球互联网的可及性与稳定性。STARLINK-4137 的发射和运行是 SpaceX 实现其全球宽带愿景的重要组成部分。

基本信息
目录编号:
53031
目录名称:
STARLINK-4137
国际标识:
2022-076AX
轨道中心:
EARTH
卫星名称:
星链-4137
卫星全名:
星链-4137 (STARLINK-4137 )
卫星状态:
在轨 (已飞行1263 天)
发射日期:
2022-07-07 UTC
国别 :
美国 (US)
星等 :
--
轨道信息
数据来源 国际轨道数据
星历时间: 2025-12-21T06:16:28+0800
7小时前
查看轨道信息
半长轴: 6917.88km
偏心率: 0.0001301
轨道倾角: 53.219°
近地点辐角 86.374°
升交点赤经 67.695°
平近点角 273.740°
近地点: 538.842km
远地点: 540.644km
周期: 95.438分钟
每日圈数: 15.088404
详细信息
固有亮度:
5
最大亮度:
2.5
卫星平台:
Starlink v1.5
覆盖范围:
全球
运营商:
太空探索技术公司
运营商所在国:
美国
制造商(研发单位):
太空探索技术公司
制造商所在国:
美国
使用方式:
暂无
卫星简介
星链(Starlink)计划是由太空探索技术公司(SpaceX)提出的一个巨型低轨卫星互联网星座项目,计划在2019年至2024年间在太空搭建由约1.2万颗卫星组成的“星链”网络,其中1584颗将部署在地球上空550千米处的近地轨道,并从2020年开始工作。该卫星仍在工作。
2D轨道图
3D轨道图
轨道高度分析图
轨道倾角分析图
轨道综合分析图
查看轨道综合分析图